Date String (YYYY-MM-DD hh:mm:ss) UTC,Instrument flags,Ambient pressure (hPa),Sample flow (lpm),Bypass flow (lpm),Sample temperature (°C),Ambient temperature (°C),ASC tube jacket temperature (°C),LED temperature (°C),Box temperature (°C),Sample RH (%),Span deviation,Mass concentration (μg/m³),Mass concentration (μg/m³),Mass concentration (μg/m³)
DateTimeUTC,F1_M11,P_M11,Q1_M11,Q2_M11,T1_M11,T2_M11,T3_M11,T4_M11,T5_M11,U1_M11,ZSPAN_M11,X0_M11,X2_M11,X1_M11
2023-04-14 01:00:00,,0813.2,5.00,0.00,30.0,28.4,00.0,38.4,31.5,07.2,0000.0,0006.52,0002.59,0001.62
2023-04-14 01:01:00,,0813.2,5.01,0.00,30.0,28.4,00.0,38.4,31.5,07.3,0000.0,0006.31,0002.60,0001.63
2023-04-14 01:02:00,,0813.2,5.01,0.00,30.0,28.4,00.0,38.4,31.5,07.2,0000.0,0006.21,0002.61,0001.64
2023-04-14 01:03:00,,0813.3,4.99,0.00,30.0,28.4,00.0,38.4,31.5,07.3,0000.0,0006.63,0002.60,0001.65
2023-04-14 01:04:00,,0813.3,4.99,0.00,30.0,28.4,00.0,38.4,31.5,07.3,0000.0,0007.00,0002.59,0001.65
2023-04-14 01:05:00,,0813.3,5.00,0.00,30.0,28.3,00.0,38.4,31.5,07.2,0000.0,0007.18,0002.60,0001.67
2023-04-14 01:06:00,,0813.3,5.01,0.00,30.0,28.3,00.0,38.4,31.5,07.2,0000.0,0007.65,0002.60,0001.69
2023-04-14 01:07:00,,0813.3,5.00,0.00,30.0,28.3,00.0,38.4,31.6,07.2,0000.0,0007.49,0002.60,0001.69
2023-04-14 01:08:00,,0813.4,5.00,0.00,30.0,28.3,00.0,38.4,31.5,07.2,0000.0,0008.36,0002.62,0001.70
2023-04-14 01:09:00,,0813.4,5.00,0.00,30.0,28.3,00.0,38.4,31.5,07.2,0000.0,0008.52,0002.60,0001.71
2023-04-14 01:10:00,,0813.4,5.00,0.00,30.0,28.3,00.0,38.4,31.5,07.2,0000.0,0009.00,0002.61,0001.72
2023-04-14 01:11:00,,0813.4,5.00,0.00,30.0,28.3,00.0,38.4,31.5,07.2,0000.0,0009.37,0002.70,0001.71
2023-04-14 01:12:00,,0813.3,4.99,0.00,30.0,28.3,00.0,38.4,31.5,07.2,0000.0,0009.34,0002.69,0001.70
2023-04-14 01:13:00,,0813.4,4.99,0.00,30.0,28.3,00.0,38.4,31.5,07.1,0000.0,0009.95,0002.76,0001.70
2023-04-14 01:14:00,,0813.3,5.00,0.00,30.0,28.3,00.0,38.4,31.5,07.1,0000.0,0010.17,0002.78,0001.70
2023-04-14 01:15:00,,0813.4,5.00,0.00,30.0,28.3,00.0,38.4,31.5,07.1,0000.0,0010.14,0002.86,0001.72
2023-04-14 01:16:00,,0813.4,5.00,0.00,30.0,28.3,00.0,38.4,31.5,07.1,0000.0,0010.69,0002.89,0001.70
2023-04-14 01:17:00,,0813.4,5.01,0.00,29.9,28.3,00.0,38.4,31.5,07.1,0000.0,0011.20,0002.88,0001.67
2023-04-14 01:18:00,,0813.4,5.01,0.00,29.9,28.3,00.0,38.4,31.5,07.2,0000.0,0011.31,0002.89,0001.67
2023-04-14 01:19:00,,0813.3,4.99,0.00,29.9,28.2,00.0,38.4,31.5,07.1,0000.0,0010.44,0002.88,0001.67
2023-04-14 01:20:00,,0813.4,5.00,0.00,29.9,28.3,00.0,38.3,31.5,07.1,0000.0,0010.20,0002.85,0001.65
2023-04-14 01:21:00,,0813.3,4.99,0.00,29.9,28.2,00.0,38.3,31.5,07.1,0000.0,0009.74,0002.93,0001.65
2023-04-14 01:22:00,,0813.4,5.00,0.00,29.9,28.2,00.0,38.3,31.4,07.1,0000.0,0009.50,0002.84,0001.64
2023-04-14 01:23:00,,0813.4,5.00,0.00,29.9,28.2,00.0,38.3,31.4,07.1,0000.0,0009.76,0002.82,0001.65
2023-04-14 01:24:00,,0813.4,5.00,0.00,29.9,28.2,00.0,38.3,31.4,07.1,0000.0,0009.46,0002.83,0001.67
2023-04-14 01:25:00,,0813.3,5.00,0.00,29.9,28.2,00.0,38.3,31.4,07.1,0000.0,0008.75,0002.79,0001.66
2023-04-14 01:26:00,,0813.4,5.01,0.00,29.9,28.2,00.0,38.3,31.4,07.1,0000.0,0008.60,0002.77,0001.64
2023-04-14 01:27:00,,0813.4,5.00,0.00,29.9,28.2,00.0,38.3,31.4,07.1,0000.0,0008.62,0002.70,0001.63
2023-04-14 01:28:00,,0813.5,5.00,0.00,29.9,28.2,00.0,38.3,31.4,07.1,0000.0,0008.66,0002.73,0001.63
2023-04-14 01:29:00,,0813.5,5.00,0.00,29.9,28.2,00.0,38.3,31.5,07.1,0000.0,0008.07,0002.68,0001.62
2023-04-14 01:30:00,,0813.4,5.01,0.00,29.9,28.2,00.0,38.3,31.4,07.1,0000.0,0008.04,0002.67,0001.61
2023-04-14 01:31:00,,0813.4,5.00,0.00,29.9,28.2,00.0,38.3,31.4,07.1,0000.0,0008.04,0002.66,0001.60
2023-04-14 01:32:00,,0813.4,4.99,0.00,29.9,28.2,00.0,38.3,31.4,07.1,0000.0,0007.98,0002.61,0001.60
2023-04-14 01:33:00,,0813.5,4.99,0.00,29.9,28.1,00.0,38.3,31.4,07.1,0000.0,0007.90,0002.52,0001.60
2023-04-14 01:34:00,,0813.5,5.00,0.00,29.9,28.1,00.0,38.3,31.4,07.1,0000.0,0007.15,0002.50,0001.59
2023-04-14 01:35:00,,0813.4,5.00,0.00,29.9,28.1,00.0,38.3,31.4,07.1,0000.0,0007.57,0002.46,0001.57
2023-04-14 01:36:00,,0813.5,5.01,0.00,29.9,28.1,00.0,38.3,31.4,07.0,0000.0,0007.96,0002.41,0001.57
2023-04-14 01:37:00,,0813.4,4.99,0.00,29.9,28.1,00.0,38.3,31.4,07.1,0000.0,0008.31,0002.34,0001.57
2023-04-14 01:38:00,,0813.5,4.99,0.00,29.8,28.1,00.0,38.3,31.4,07.0,0000.0,0009.17,0002.36,0001.56
2023-04-14 01:39:00,,0813.5,5.00,0.00,29.8,28.1,00.0,38.3,31.4,07.0,0000.0,0008.45,0002.33,0001.55
2023-04-14 01:40:00,,0813.5,5.01,0.00,29.8,28.1,00.0,38.3,31.4,07.0,0000.0,0008.35,0002.33,0001.54
2023-04-14 01:41:00,,0813.4,5.00,0.00,29.8,28.0,00.0,38.3,31.4,07.0,0000.0,0008.39,0002.33,0001.53
2023-04-14 01:42:00,,0813.5,5.00,0.00,29.8,28.0,00.0,38.2,31.3,06.9,0000.0,0008.52,0002.33,0001.52
2023-04-14 01:43:00,,0813.5,5.00,0.00,29.8,28.0,00.0,38.2,31.3,07.0,0000.0,0008.54,0002.33,0001.51
2023-04-14 01:44:00,,0813.4,5.00,0.00,29.8,28.0,00.0,38.2,31.3,07.0,0000.0,0008.61,0002.37,0001.51
2023-04-14 01:45:00,,0813.4,5.00,0.00,29.8,28.0,00.0,38.2,31.3,06.9,0000.0,0008.63,0002.38,0001.50
2023-04-14 01:46:00,,0813.4,5.00,0.00,29.8,28.0,00.0,38.2,31.3,06.9,0000.0,0008.27,0002.39,0001.49
2023-04-14 01:47:00,,0813.4,5.00,0.00,29.8,28.0,00.0,38.2,31.3,06.9,0000.0,0008.34,0002.45,0001.48
2023-04-14 01:48:00,,0813.4,5.01,0.00,29.8,28.0,00.0,38.2,31.3,06.9,0000.0,0008.52,0002.46,0001.47
2023-04-14 01:49:00,,0813.3,5.00,0.00,29.8,27.9,00.0,38.2,31.3,07.0,0000.0,0007.58,0002.40,0001.46
2023-04-14 01:50:00,,0813.4,5.00,0.00,29.8,27.9,00.0,38.2,31.3,07.0,0000.0,0007.39,0002.37,0001.45
2023-04-14 01:51:00,,0813.4,5.00,0.00,29.8,27.9,00.0,38.2,31.2,07.0,0000.0,0007.26,0002.31,0001.43
2023-04-14 01:52:00,,0813.4,5.00,0.00,29.7,27.9,00.0,38.2,31.3,07.0,0000.0,0007.70,0002.38,0001.44
2023-04-14 01:53:00,,0813.3,5.00,0.00,29.7,27.9,00.0,38.2,31.3,07.0,0000.0,0009.35,0002.39,0001.44
2023-04-14 01:54:00,,0813.4,5.00,0.00,29.7,27.9,00.0,38.2,31.2,07.0,0000.0,0010.28,0002.49,0001.44
2023-04-14 01:55:00,,0813.4,5.00,0.00,29.7,27.9,00.0,38.1,31.2,07.0,0000.0,0010.36,0002.51,0001.44
2023-04-14 01:56:00,,0813.5,5.00,0.00,29.7,27.9,00.0,38.1,31.2,07.0,0000.0,0010.69,0002.57,0001.43
2023-04-14 01:57:00,,0813.4,5.00,0.00,29.7,27.9,00.0,38.1,31.2,07.1,0000.0,0011.72,0002.63,0001.43
2023-04-14 01:58:00,,0813.5,5.00,0.00,29.7,27.8,00.0,38.1,31.2,07.1,0000.0,0012.31,0002.61,0001.42
2023-04-14 01:59:00,,0813.4,5.00,0.00,29.7,27.8,00.0,38.1,31.2,07.1,0000.0,0012.08,0002.60,0001.42
